[[{"header":{"parameterUnit":"m.s-1","parameterCategory":1,"la1":30.2991,"la2":30.254,"lo1":-89.0895,"lo2":-89.0444,"dy":0.0017,"dx":0.0017,"nx":28,"ny":28,"refTime":"2025-12-25T09:00:00:Z","depth":0,"parameterNumber":2,"parameterNumberName":"U-component_of_WINDS"},"data":[0,0,0,0,0,0,0,0,0,0,0,0,0,0,0,0,0,0,0,0,0,0,0,0,0,0,0,0,0,0,0,0,0,0,0,0,0,0,0,0,0,0,0,0,0,0,0,0,0,0,0,0,0,0,0,0,0,0,-0.2019,-0.2018,0,-0.1894,-0.1893,-0.1891,-0.1844,-0.1845,-0.1845,-0.1846,-0.1713,-0.1709,-0.1705,0,0,0,0,0,0,0,0,0,0,0,0,0,-0.2211,-0.2208,-0.2019,-0.2018,-0.2016,-0.1894,-0.1893,-0.1891,-0.1844,-0.1845,-0.1845,-0.1846,-0.1714,-0.1709,-0.1705,0,0,0,0,0,0,0,0,0,0,0,0,0,-0.2111,-0.2207,-0.202,-0.1978,-0.1974,-0.1895,-0.1893,-0.189,-0.1844,-0.1845,-0.1846,-0.1846,-0.1716,-0.171,-0.1704,-0.1656,0,0,-0.1686,-0.1684,0,0,0,0,0,0,0,0,-0.2117,-0.2104,-0.1986,-0.1981,-0.1976,-0.1886,-0.1911,-0.1812,-0.1844,-0.1893,-0.1846,-0.1846,-0.1769,-0.1759,-0.1734,-0.1649,-0.1644,-0.1686,-0.1682,-0.1679,-0.1678,0,0,0,0,0,0,0,-0.2124,-0.2109,-0.197,-0.1984,-0.1978,-0.1964,-0.195,-0.1892,-0.1829,-0.1889,-0.1885,-0.1871,-0.1767,-0.174,-0.1731,-0.1642,-0.1686,-0.1681,-0.1677,-0.1675,-0.1505,-0.1504,0,0,0,0,0,0,-0.2138,-0.2115,-0.1974,-0.1966,-0.2049,-0.196,-0.1945,-0.1914,-0.183,-0.1818,-0.1871,-0.187,-0.175,-0.1738,-0.1726,-0.166,-0.168,-0.1674,-0.1671,-0.1506,-0.1505,-0.1504,0,0,0,0,0,0,-0.2143,-0.2126,-0.1979,-0.2039,-0.202,-0.1956,-0.1922,-0.1911,-0.1884,-0.1816,-0.1804,-0.1856,-0.175,-0.1734,-0.1673,-0.1655,-0.1671,-0.1666,-0.1507,-0.1506,-0.1504,-0.1531,0,0,0,0,0,0,-0.2148,-0.2128,-0.2111,-0.2039,-0.2017,-0.193,-0.1921,-0.1908,-0.1875,-0.1872,-0.1799,-0.1787,-0.1749,-0.1682,-0.1667,-0.1647,-0.1661,-0.1508,-0.1507,-0.1505,-0.1531,-0.153,-0.153,0,0,0,0,0,-0.2155,-0.2124,-0.211,-0.2094,-0.1994,-0.1929,-0.1916,-0.1874,-0.1874,-0.1854,-0.181,-0.179,-0.166,-0.1676,-0.1659,-0.1637,-0.1509,-0.1507,-0.1505,-0.1531,-0.1531,-0.153,0,0,0,0,0,0,-0.2194,-0.2114,-0.2098,-0.2043,-0.1993,-0.1922,-0.1896,-0.1875,-0.1823,-0.1823,-0.1771,-0.1755,-0.1696,-0.1661,-0.168,-0.1583,-0.1583,-0.1577,-0.1609,-0.1607,-0.1607,-0.1616,-0.1657,0,0,0,0,0,-0.2197,-0.2152,-0.2083,-0.2041,-0.2017,-0.1961,-0.1931,-0.1903,-0.1849,-0.1827,-0.1778,-0.1725,-0.1671,-0.1638,-0.1585,-0.1526,-0.1507,-0.1502,-0.1501,-0.1501,-0.1496,-0.1457,-0.1453,-0.1497,-0.1497,-0.1497,0,0,-0.2201,-0.2151,-0.2126,-0.2047,-0.2006,-0.1958,-0.1944,-0.1895,-0.1858,-0.1819,-0.1758,-0.172,-0.1656,-0.1595,-0.1565,-0.1563,-0.148,-0.1498,-0.1499,-0.1494,-0.1455,-0.1451,-0.1447,-0.1495,-0.1495,-0.1496,0,0,-0.2183,-0.2143,-0.2101,-0.2059,-0.1996,-0.1958,-0.1948,-0.1879,-0.1852,-0.179,-0.1758,-0.1712,-0.1623,-0.1577,-0.1543,-0.1504,-0.1481,-0.1488,-0.1484,-0.1447,-0.1443,-0.144,-0.1422,-0.1417,-0.1484,-0.1484,-0.1484,0,-0.2196,-0.2126,-0.2082,-0.2034,-0.1999,-0.1961,-0.1916,-0.1877,-0.18,-0.1775,-0.1774,-0.1657,-0.1613,-0.1538,-0.1528,-0.1502,-0.1486,-0.1496,-0.1448,-0.1444,-0.144,-0.1422,-0.1416,-0.1485,-0.1485,-0.1484,-0.1484,0,-0.2142,-0.2093,-0.2067,-0.1993,-0.1954,-0.1908,-0.1855,-0.1821,-0.1795,-0.1756,-0.169,-0.1634,-0.1568,-0.1548,-0.1523,-0.1468,-0.1468,-0.1458,-0.1456,-0.1437,-0.142,-0.1413,-0.1486,-0.1486,-0.1485,-0.1485,0,0,-0.2149,-0.2049,-0.2039,-0.2003,-0.1929,-0.1889,-0.1839,-0.1775,-0.1744,-0.1691,-0.1646,-0.1569,-0.1558,-0.1518,-0.1487,-0.1454,-0.1422,-0.1447,-0.1445,-0.1442,-0.1353,-0.136,-0.1353,-0.1407,-0.1405,-0.1404,-0.1357,0,-0.212,-0.2031,-0.1989,-0.1917,-0.1869,-0.183,-0.1786,-0.1734,-0.1695,-0.1646,-0.1603,-0.1548,-0.154,-0.1515,-0.1481,-0.1433,-0.1403,-0.1436,-0.136,-0.1358,-0.1376,-0.1344,-0.1352,-0.1311,-0.1351,-0.1349,-0.1349,0,-0.2075,-0.2022,-0.1946,-0.1873,-0.1851,-0.1812,-0.1747,-0.1702,-0.164,-0.1614,-0.1568,-0.1537,-0.1479,-0.1482,-0.1399,-0.1422,-0.1388,-0.136,-0.1357,-0.1347,-0.1351,-0.1331,-0.1297,-0.129,-0.1338,-0.1339,-0.134,0,-0.2084,-0.1993,-0.1934,-0.1905,-0.1819,-0.1792,-0.1755,-0.1694,-0.1656,-0.1598,-0.1572,-0.1509,-0.1473,-0.1423,-0.1373,-0.1381,-0.1294,-0.1294,-0.1267,-0.1268,-0.125,-0.1251,-0.1207,-0.1232,-0.1232,-0.1232,-0.1232,0,-0.2055,-0.201,-0.1936,-0.19,-0.1846,-0.1796,-0.1743,-0.1702,-0.1647,-0.1599,-0.1562,-0.1518,-0.1456,-0.1403,-0.1364,-0.1299,-0.1284,-0.1258,-0.1248,-0.126,-0.1263,-0.1236,-0.1237,-0.123,-0.1231,-0.1231,-0.1231,0,-0.2056,-0.2006,-0.1939,-0.1862,-0.1841,-0.1805,-0.1737,-0.1699,-0.1657,-0.1597,-0.158,-0.1514,-0.1449,-0.1395,-0.131,-0.1283,-0.1214,-0.1203,-0.1235,-0.1229,-0.1205,-0.1207,-0.114,-0.1127,-0.1163,-0.1163,-0.1163,0,-0.2041,-0.2005,-0.1923,-0.1889,-0.1852,-0.1798,-0.1759,-0.1706,-0.1667,-0.159,-0.156,-0.1492,-0.1436,-0.1333,-0.1275,-0.1208,-0.1194,-0.1175,-0.1184,-0.1196,-0.119,-0.1192,-0.1186,-0.1174,-0.1174,-0.1174,-0.1174,0,-0.2018,-0.1994,-0.194,-0.1875,-0.1829,-0.1776,-0.1722,-0.1695,-0.1632,-0.1588,-0.1521,-0.1477,-0.1389,-0.132,-0.1246,-0.1205,-0.1177,-0.1172,-0.1161,-0.1173,-0.1192,-0.1177,-0.1231,-0.1173,-0.1173,-0.1173,-0.1174,-0.1174,-0.2009,-0.1973,-0.1909,-0.1848,-0.1801,-0.175,-0.1708,-0.166,-0.1604,-0.1529,-0.15,-0.1431,-0.1364,-0.1262,-0.122,-0.1162,-0.1159,-0.1145,-0.1141,-0.1138,-0.1137,-0.1202,-0.1149,-0.1149,-0.1149,-0.1149,-0.1149,0,-0.1982,-0.1937,-0.1882,-0.1806,-0.1757,-0.1736,-0.1673,-0.1633,-0.1573,-0.1514,-0.1457,-0.1378,-0.131,-0.1246,-0.1174,-0.114,-0.1125,-0.1122,-0.1123,-0.1113,-0.1147,-0.1161,-0.1135,-0.1135,-0.1135,-0.1135,-0.1135,-0.1135,-0.1962,-0.1898,-0.1865,-0.1776,-0.1732,-0.1664,-0.1629,-0.158,-0.1532,-0.1445,-0.1389,-0.1347,-0.1284,-0.1207,-0.1142,-0.1125,-0.1098,-0.1099,-0.1077,-0.111,-0.1112,-0.1113,-0.1127,-0.1094,-0.1094,-0.1048,-0.1048,-0.1048]},{"header":{"parameterUnit":"m.s-1","parameterCategory":1,"la1":30.2991,"la2":30.254,"lo1":-89.0895,"lo2":-89.0444,"dy":0.0017,"dx":0.0017,"nx":28,"ny":28,"refTime":"2025-12-25T09:00:00:Z","depth":0,"parameterNumber":3,"parameterNumberName":"V-component_of_WINDS"},"data":[0,0,0,0,0,0,0,0,0,0,0,0,0,0,0,0,0,0,0,0,0,0,0,0,0,0,0,0,0,0,0,0,0,0,0,0,0,0,0,0,0,0,0,0,0,0,0,0,0,0,0,0,0,0,0,0,0,0,2.1065,2.1066,0,2.1155,2.1156,2.1157,2.1188,2.1188,2.1187,2.1187,2.1281,2.1284,2.1287,0,0,0,0,0,0,0,0,0,0,0,0,0,2.0923,2.0926,2.1065,2.1066,2.1067,2.1154,2.1156,2.1157,2.1188,2.1188,2.1187,2.1187,2.1281,2.1284,2.1287,0,0,0,0,0,0,0,0,0,0,0,0,0,2.0996,2.0927,2.1064,2.1093,2.1096,2.1154,2.1156,2.1157,2.1188,2.1188,2.1187,2.1186,2.1279,2.1284,2.1288,2.1325,0,0,2.1301,2.1303,0,0,0,0,0,0,0,0,2.0992,2.1001,2.1087,2.1091,2.1095,2.1159,2.1141,2.1214,2.1188,2.1153,2.1187,2.1186,2.1241,2.1249,2.1267,2.1329,2.1333,2.1301,2.1304,2.1306,2.1307,0,0,0,0,0,0,0,2.0987,2.0998,2.11,2.1089,2.1093,2.1102,2.1112,2.1155,2.1199,2.1156,2.1159,2.1169,2.1243,2.1263,2.1269,2.1335,2.1301,2.1305,2.1308,2.1309,2.1435,2.1436,0,0,0,0,0,0,2.0977,2.0993,2.1097,2.1103,2.1041,2.1105,2.1116,2.1139,2.1199,2.1207,2.1169,2.117,2.1256,2.1264,2.1273,2.1322,2.1306,2.131,2.1312,2.1434,2.1435,2.1436,0,0,0,0,0,0,2.0973,2.0986,2.1094,2.1049,2.1063,2.1108,2.1134,2.1141,2.1161,2.1209,2.1217,2.1181,2.1256,2.1267,2.1312,2.1326,2.1312,2.1315,2.1433,2.1435,2.1436,2.142,0,0,0,0,0,0,2.0969,2.0984,2.0998,2.1049,2.1066,2.113,2.1135,2.1144,2.1168,2.117,2.1222,2.123,2.1256,2.1306,2.1316,2.1332,2.1319,2.1432,2.1434,2.1435,2.1419,2.142,2.1421,0,0,0,0,0,2.0964,2.099,2.0998,2.1011,2.1083,2.1131,2.1141,2.117,2.1169,2.1184,2.1215,2.1228,2.1322,2.131,2.1322,2.1339,2.1432,2.1434,2.1435,2.1419,2.142,2.1421,0,0,0,0,0,0,2.0939,2.0997,2.1007,2.1049,2.1085,2.1136,2.1155,2.117,2.1207,2.1207,2.1243,2.1254,2.1297,2.1323,2.1308,2.138,2.1378,2.1382,2.1361,2.1363,2.1364,2.1357,2.1322,0,0,0,0,0,2.0938,2.0971,2.102,2.1053,2.1071,2.111,2.1132,2.1151,2.119,2.1205,2.124,2.1278,2.1316,2.1341,2.1379,2.1423,2.1436,2.1441,2.1442,2.1442,2.1446,2.1474,2.1477,2.1442,2.1442,2.1442,0,0,2.0937,2.0973,2.0992,2.1049,2.1079,2.1114,2.1122,2.1158,2.1185,2.1211,2.1256,2.1283,2.1328,2.1374,2.1395,2.1396,2.1459,2.1444,2.1444,2.1448,2.1476,2.148,2.1483,2.1443,2.1443,2.1443,0,0,2.0954,2.0983,2.1015,2.1045,2.109,2.1117,2.1124,2.1174,2.1193,2.1239,2.126,2.1293,2.1357,2.1389,2.1414,2.1445,2.146,2.1456,2.1461,2.1488,2.1491,2.1494,2.1507,2.1511,2.146,2.146,2.146,0,2.0947,2.1,2.103,2.1065,2.1091,2.1116,2.115,2.1178,2.1233,2.1251,2.1251,2.1334,2.1366,2.1421,2.1429,2.1447,2.1459,2.1451,2.1488,2.1491,2.1494,2.1507,2.1512,2.1459,2.1459,2.1459,2.1459,0,2.0991,2.1027,2.1047,2.1101,2.1129,2.1163,2.12,2.1225,2.1242,2.1269,2.1317,2.1356,2.1404,2.1418,2.1435,2.1476,2.1475,2.1481,2.1481,2.1497,2.151,2.1515,2.1458,2.1458,2.1459,2.1459,0,0,2.0993,2.1064,2.1071,2.1096,2.1149,2.1179,2.1215,2.1261,2.1283,2.1321,2.1354,2.1409,2.1416,2.1444,2.1465,2.1489,2.1514,2.1492,2.1494,2.1497,2.1564,2.1561,2.1566,2.1523,2.1524,2.1525,2.1561,0,2.1018,2.1083,2.1112,2.1166,2.1201,2.1226,2.1259,2.1295,2.1322,2.1357,2.1387,2.1427,2.1431,2.1448,2.1472,2.1505,2.1528,2.1503,2.1557,2.1558,2.1546,2.1573,2.1568,2.1601,2.1566,2.1567,2.1568,0,2.1055,2.1093,2.115,2.1201,2.1217,2.1245,2.1292,2.1324,2.1367,2.1385,2.1417,2.1438,2.148,2.1476,2.1535,2.1517,2.1541,2.1561,2.1563,2.157,2.1565,2.1583,2.1611,2.1617,2.1576,2.1575,2.1575,0,2.1053,2.1119,2.1163,2.1183,2.1243,2.1263,2.1289,2.1332,2.1359,2.1399,2.1418,2.1462,2.1487,2.1523,2.1556,2.1549,2.1613,2.1611,2.1631,2.163,2.1644,2.1643,2.1679,2.1656,2.1656,2.1656,2.1656,0,2.1079,2.1113,2.1163,2.119,2.123,2.1264,2.1303,2.1331,2.1369,2.1403,2.1428,2.1459,2.1501,2.1538,2.1564,2.1611,2.1622,2.1639,2.1646,2.1638,2.1636,2.1655,2.1654,2.1657,2.1657,2.1657,2.1657,0,2.1084,2.1118,2.1168,2.1221,2.1235,2.1263,2.1309,2.1337,2.1365,2.1408,2.142,2.1465,2.1511,2.1548,2.1607,2.1625,2.1675,2.1681,2.166,2.1664,2.1683,2.1681,2.1733,2.1743,2.1712,2.1712,2.1713,0,2.1098,2.1125,2.1182,2.1206,2.1232,2.1271,2.1299,2.1334,2.1362,2.1415,2.1437,2.1485,2.1525,2.1597,2.1636,2.1683,2.1692,2.1707,2.1699,2.1691,2.1695,2.1694,2.1698,2.1708,2.1708,2.1708,2.1709,0,2.1121,2.1137,2.1176,2.1221,2.1254,2.1291,2.133,2.1349,2.1391,2.1422,2.1469,2.15,2.1562,2.161,2.1661,2.169,2.1707,2.1711,2.1718,2.1711,2.1698,2.1708,2.1665,2.171,2.1709,2.1709,2.1709,2.1709,2.1132,2.1158,2.1203,2.1246,2.1279,2.1315,2.1345,2.1377,2.1417,2.147,2.1489,2.1538,2.1583,2.1654,2.1683,2.1723,2.1725,2.1735,2.1738,2.174,2.1741,2.1691,2.1732,2.1732,2.1732,2.1732,2.1732,0,2.1158,2.1188,2.1227,2.1281,2.1316,2.1328,2.1372,2.1401,2.1444,2.1484,2.1524,2.1579,2.1627,2.167,2.172,2.1744,2.1753,2.1756,2.1755,2.1762,2.1735,2.1725,2.1748,2.1748,2.1748,2.1748,2.1747,2.1747,2.1175,2.1221,2.1243,2.1307,2.1338,2.1386,2.141,2.1445,2.1478,2.1539,2.1578,2.1606,2.1649,2.1702,2.1747,2.1759,2.1777,2.1778,2.1792,2.1766,2.1764,2.1762,2.1752,2.1781,2.1781,2.1816,2.1816,2.1816]}]]